Regional Weather Roundup
Issued by NWS Jackson, KY

Home | Current Version | Previous Version | Text Only | Print | Product List | Glossary Off
Versions: 1 2 3 4 5 6 7 8 9 10 11 12 13 14 15 16 17 18 19 20 21 22 23 24 25 26 27 28 29 30 31 32 33 34 35 36 37 38 39 40 41 42 43 44 45 46 47 48 49 50

000
ASUS43 KJKL 021511
RWRJKL

EAST KENTUCKY HOURLY WEATHER ROUNDUP
NATIONAL WEATHER SERVICE JACKSON KY
1100 AM EDT THU OCT 02 2014

NOTE: "FAIR" INDICATES FEW OR NO CLOUDS BELOW 12,000 FEET WITH
NO SIGNIFICANT WEATHER AND/OR OBSTRUCTIONS TO VISIBILITY.

* THESE REPORTS ARE NOT UNDER NWS QUALITY CONTROL AND MAY NOT
  REPORT WEATHER SUCH AS PRECIPITATION AND FOG.

KYZ079-080-083-085-087-088-110-112-115-119-120-021600
...EASTERN KENTUCKY...

CITY           SKY/WX    TMP DP  RH WIND       PRES   REMARKS
JACKSON          N/A     71  57  61 CALM      30.12S
LONDON         PTSUNNY   72  59  63 VRB5      30.11F
SOMERSET*        N/A     72  57  60 S5        30.10F
MONTICELLO*      N/A     78  62  57 S7        30.10F
WILLIAMSBURG*  SUNNY     72  61  68 SE6       30.11F
MIDDLESBORO*     N/A     63  58  84 CALM      30.14F
HARLAN APT*      N/A     64  55  72 CALM      30.15F
HAZARD APT*    MOSUNNY   72  59  64 SW3       30.12
BLACK MTN*       N/A     64  52  63 W5          N/A
PIKEVILLE APT* SUNNY     68  59  73 S3        30.13S
BIG SANDY*       N/A     72  59  63 S5        30.12S
MOREHEAD APT*    N/A     73  59  60 VRB7      30.11S
$$

KYZ035-036-041-042-044-050-067-078-099-021600
...CENTRAL KENTUCKY...

CITY           SKY/WX    TMP DP  RH WIND       PRES   REMARKS
MT STERLING*     N/A     73  59  60 SW7       30.09F
FLEMING/MASON* SUNNY     75  59  57 S6        30.08S
DANVILLE*        N/A     73  57  56 SW13      30.08F
RICHMOND*        N/A     75  55  50 S9        30.08S
LEXINGTON        N/A     77  59  53 S13       30.06F
FRANKFORT        N/A     75  59  57 S9        30.04F
$$

KYZ091>093-OHZ055-061-077-WVZ005-015-034-035-042-021600
...SOUTHERN OHIO/WEST VIRGINIA...

CITY           SKY/WX    TMP DP  RH WIND       PRES   REMARKS
COVINGTON      PTSUNNY   75  58  55 SW10      30.03F
COLUMBUS         N/A     68  56  65 SE8       30.06F
DAYTON         PTSUNNY   70  58  65 S8        30.03F
WILMINGTON       N/A     76  58  53 S12       30.04F
HUNTINGTON       N/A     69  60  73 S5        30.09F
CHARLESTON       N/A     68  59  73 CALM      30.10F
PINEVILLE*       N/A     70  63  78 MISG      30.20S
BECKLEY          N/A     71  54  54 W5        30.18R
BLUEFIELD        N/A     72  51  47 W3        30.20S
$$

VAZ002-007-008-TNZ017-027-036-066-071-021600
...SOUTHWEST VIRGINIA/EAST TENNESSEE...

CITY           SKY/WX    TMP DP  RH WIND       PRES   REMARKS
WISE*            N/A     72  52  49 SW5       30.20S
JONESVILLE*      N/A     68  57  68 CALM      30.17F
ABINGDON*        N/A     72  58  62 CALM      30.18S
BRISTOL          N/A     67  55  65 CALM      30.16S
KNOXVILLE        N/A     71  58  63 CALM      30.12F
OAK RIDGE        N/A     71  61  70 CALM      30.14F
CROSSVILLE       N/A     77  61  57 S6        30.14S
NASHVILLE        N/A     79  64  60 S10       30.05F
$$

...KEY TO REMARKS...
VSB - VISIBILITY IN MILES
WCI - WIND CHILL INDEX
HX  - HEAT INDEX

$$



USA.gov is the U.S. government's official web portal to all federal, state and local government web resources and services.